Roseburg, OR

11:41 AM PDT on September 15, 2019 (GMT -0700)
Roseburg Regional

Weather History for KRBG - July, 2019

Change the Weather History Date:

Sunday, July 21, 2019

  Actual Average Record
Temperature  
Mean Temperature 73 °F 71 °F  
Max Temperature 90 °F 86 °F 104 °F (1938)
Min Temperature 56 °F 57 °F 48 °F (1970)
Degree Days  
Heating Degree Days 0 0  
Month to date heating degree days 2 8  
Since 1 June heating degree days 37 91  
Since 1 July heating degree days 2 8  
Cooling Degree Days 8 6  
Month to date cooling degree days 118 107  
Year to date cooling degree days 269 177  
Since 1 June cooling degree days 240 157  
Growing Degree Days 22 (Base 50)    
Moisture  
Dew Point 51 °F    
Average Humidity 53    
Maximum Humidity 83    
Minimum Humidity 23    
Precipitation  
Precipitation 0.00 in 0.02 in 1.60 in (1987)
Month to date precipitation 0.02 0.32  
Year to date precipitation 21.69 19.08  
Sea Level Pressure  
Sea Level Pressure 29.96 in    
Wind  
Wind Speed 5 mph (North)    
Max Wind Speed 15 mph    
Max Gust Speed 20 mph    
Visibility 10 miles    
Events      
T = Trace of Precipitation, MM = Missing Value Source: NWS Daily Summary

Daily Weather History Graph

Daily Weather History Graph

Search for Another Location

Airport or City:

Astronomy

Jul. 21, 2019 Rise Set
Actual Time 5:52 AM PDT 8:46 PM PDT
Civil Twilight 5:18 AM PDT 9:20 PM PDT
Nautical Twilight 4:35 AM PDT 10:02 PM PDT
Astronomical Twilight 3:45 AM PDT 10:52 PM PDT
Moon 11:36 PM PDT (7/21) 10:24 AM PDT (7/21)
Length of Visible Light 16h 01m
Length of Day
14h 54m
Waning Gibbous, 79% of the Moon is Illuminated
Jul 21
Waning Gibbous
Jul 24
Last Quarter
Jul 31
New
Aug 7
First Quarter
Aug 15
Full

Hourly Weather History & Observations

Time (PDT) Temp. Heat Index Dew Point Humidity Pressure Visibility Wind Dir Wind Speed Gust Speed Precip Events Conditions
12:53 AM 64.0 °F - 48.9 °F 58% 29.96 in 10.0 mi Calm Calm - N/A   Clear
1:53 AM 62.1 °F - 48.9 °F 62% 29.97 in 10.0 mi North 3.5 mph - N/A   Clear
2:53 AM 61.0 °F - 48.9 °F 64% 29.97 in 10.0 mi Calm Calm - N/A   Clear
3:53 AM 59.0 °F - 50.0 °F 72% 29.98 in 10.0 mi Calm Calm - N/A   Clear
4:53 AM 57.0 °F - 48.9 °F 74% 29.99 in 10.0 mi Calm Calm - N/A   Clear
5:53 AM 55.9 °F - 50.0 °F 80% 30.01 in 10.0 mi Calm Calm - N/A   Clear
6:53 AM 57.9 °F - 48.9 °F 72% 30.02 in 10.0 mi Calm Calm - N/A   Clear
7:53 AM 61.0 °F - 50.0 °F 67% 30.02 in 10.0 mi Calm Calm - N/A   Clear
8:53 AM 63.0 °F - 51.1 °F 65% 30.03 in 10.0 mi Calm Calm - N/A   Clear
9:53 AM 66.9 °F - 51.1 °F 57% 30.01 in 10.0 mi Calm Calm - N/A   Clear
10:53 AM 71.1 °F - 51.1 °F 49% 30.00 in 10.0 mi Variable 3.5 mph - N/A   Clear
11:53 AM 75.0 °F - 51.1 °F 43% 29.98 in 10.0 mi Variable 4.6 mph - N/A   Clear
12:53 PM 80.1 °F 79.9 °F 53.1 °F 39% 29.96 in 10.0 mi Variable 4.6 mph - N/A   Clear
1:53 PM 84.0 °F - 51.1 °F 32% 29.94 in 10.0 mi NNE 8.1 mph - N/A   Clear
2:53 PM 87.1 °F 84.9 °F 53.1 °F 31% 29.93 in 10.0 mi North 8.1 mph - N/A   Clear
3:53 PM 88.0 °F - 50.0 °F 27% 29.91 in 10.0 mi North 10.4 mph - N/A   Clear
4:53 PM 89.1 °F - 46.9 °F 23% 29.90 in 10.0 mi North 9.2 mph - N/A   Clear
5:53 PM 89.1 °F - 50.0 °F 26% 29.89 in 10.0 mi NNE 13.8 mph 19.6 mph N/A   Clear
6:53 PM 84.9 °F 83.3 °F 54.0 °F 34% 29.89 in 10.0 mi Variable 6.9 mph - N/A   Clear
7:53 PM 82.0 °F 81.2 °F 53.1 °F 37% 29.91 in 10.0 mi WNW 9.2 mph - N/A   Clear
8:53 PM 75.9 °F - 55.0 °F 48% 29.94 in 10.0 mi NW 8.1 mph - N/A   Clear
9:53 PM 75.0 °F - 53.1 °F 46% 29.97 in 10.0 mi North 6.9 mph - N/A   Clear
10:53 PM 72.0 °F - 52.0 °F 49% 29.98 in 10.0 mi North 6.9 mph - N/A   Clear
11:53 PM 70.0 °F - 51.1 °F 51% 29.99 in 10.0 mi North 5.8 mph - N/A   Clear